[ hide orbit diagram ]
For accurate long-term ephemerides, please instead use our Horizons system.This orbit viewer was implemented using two-body methods, and hence should not be used for determining accurate long-term trajectories (over several years or decades) or planetary encounter circumstances.
Orbital Elements at Epoch 2459000.5 (2020-May-31.0) TDB
Reference: JPL 8 (heliocentric ecliptic J2000)
Element | Value | Uncertainty (1-sigma) | Units |
e | .2368283803800585 | 6.0812e-08 | |
a | 2.289349790405431 | 1.363e-08 | au |
q | 1.747166787420287 | 1.4343e-07 | au |
i | 1.605550988640368 | 6.9993e-06 | deg |
node | 18.96279043177651 | 0.00027633 | deg |
peri | 16.31112634614137 | 0.00027697 | deg |
M | 140.8336522345742 | 2.1168e-05 | deg |
tp | 2458505.539435114503 (2019-Jan-22.03943511) | 7.1941e-05 | TDB |
period | 1265.221774281551 3.46 | 1.1299e-05 3.093e-08 | d yr |
n | .2845350967852447 | 2.5411e-09 | deg/d |
Q | 2.831532793390576 | 1.6858e-08 | au |
|
| | Orbit Determination Parameters
Additional Information
|
[ show covariance matrix ]
Physical Parameter Table
Parameter |
Symbol |
Value |
Units |
Sigma |
Reference |
Notes |
absolute magnitude |
H |
17.50 |
|
n/a |
E2021B25 |
|
|
357112 (2001 VB9) Discovered 2001-Nov-09 by LINEAR at Socorro |
Reference: 20130327/Numbers.arc | Last Updated: 2013-03-29 |
|
[ show close-approach data ]
|